Regional Weather Roundup
Issued by NWS

Home | Current Version | Previous Version | Text Only | Print | Product List | Glossary Off
Versions: 1 2 3 4 5 6 7 8 9 10 11 12 13 14 15 16 17 18 19 20 21 22 23 24 25 26 27 28 29 30 31 32 33 34 35 36 37 38 39 40 41 42 43 44 45 46 47 48 49 50

000
ASUS45 KABQ 292010
RWRNM
WEATHER ROUNDUP FOR NEW MEXICO
NATIONAL WEATHER SERVICE ALBUQUERQUE NM
200 PM MDT TUE JUL 29 2014

NOTE: "FAIR" MEANS FEW OR NO CLOUDS BELOW 12,000 FEET AGL WITH NO
       SIGNIFICANT WEATHER OR OBSTRUCTIONS TO VISION.

      THIS PRODUCT IS RELEASED AS TWO VERSIONS.  ONE VERSION NEAR
      THE TOP OF THE HOUR CONTAINING PRELIMINARY DATA FROM ALBUQUERQUE
      AND OTHER STATIONS.  A FINAL VERSION WITH ADDITIONAL DATA IS
      ISSUED ABOUT 10 MINUTES AFTER THE HOUR.

NMZ501-503-504-510>518-292100-
NORTHWEST PLATEAU/NORTHCENTRAL MOUNTAINS

CITY           SKY/WX    TMP DP  RH WIND       PRES   REMARKS
FARMINGTON     MOSUNNY   82  53  36 W7        30.23F
LOS ALAMOS     LGT RAIN  61  56  83 W10       30.38F
SANTA FE       MOSUNNY   75  57  53 W9        30.30F
TAOS           CLOUDY    72  52  49 W16       30.35F
ANGEL FIRE     FAIR      71  51  49 W14G21    30.41F

$$
NMZ402-403-502-505>509-292100-
WESTCENTRAL MOUNTAINS/SOUTHWEST MOUNTAINS

CITY           SKY/WX    TMP DP  RH WIND       PRES   REMARKS
GALLUP         MOSUNNY   79  51  37 CALM      30.30F
SILVER CITY    PTSUNNY   82  52  34 SW9       30.28F

$$
NMZ407-409-411-412-292100-
SOUTHERN DESERTS

CITY           SKY/WX    TMP DP  RH WIND       PRES   REMARKS
LORDSBURG      FAIR      90  54  29 W7        30.16F
DEMING         MOSUNNY   90  57  32 VRB5      30.18F
LAS CRUCES     SUNNY     86  58  38 SW7       30.21F
HOLLOMAN AFB   MOSUNNY   84  61  45 SW10      30.18F
ALAMOGORDO     MOSUNNY   84  57  39 S9G18     30.20F
T OR C         MOSUNNY   87  54  32 VRB5      30.20F

$$
NMZ519>523-292100-
CENTRAL VALLEYS/CENTRAL HIGHLANDS

CITY           SKY/WX    TMP DP  RH WIND       PRES   REMARKS
ALBUQUERQUE    MOSUNNY   80  55  42 SW8       30.25F
DOUBLE EAGLE   PTSUNNY   79  55  44 S3        30.28F
MORIARTY ARPT  FAIR      72  61  69 SE3       30.32F
CLINES CORNERS PTSUNNY   66  58  75 W9        30.35F
BELEN          MOCLDY    81  56  42 SE6       30.23F
SOCORRO        FAIR      74  65  71 SW6       30.24F

$$
NMZ524>526-539-540-292100-
SOUTHCENTRAL MOUNTAINS

CITY           SKY/WX    TMP DP  RH WIND       PRES   REMARKS
RUIDOSO        CLOUDY    68  61  77 E9        30.38F

$$
NMZ527>531-292100-
NORTHEAST HIGHLANDS/NORTHEAST PLAINS

CITY           SKY/WX    TMP DP  RH WIND       PRES   REMARKS
LAS VEGAS      PTSUNNY   72  59  63 S21G26    30.32F
RATON          PTSUNNY   74  59  59 S12       30.26F
CLAYTON        MOSUNNY   80  55  42 S16       30.21F

$$
NMZ532>537-292100-
EASTCENTRAL PLAINS

CITY           SKY/WX    TMP DP  RH WIND       PRES   REMARKS
TUCUMCARI      PTSUNNY   81  62  52 SW16G23   30.18F
CANNON AFB     PTSUNNY   72  63  73 SW9       30.23F
CLOVIS AIRPORT NOT AVBL

$$
NMZ028-029-538-292100-
SOUTHEAST PLAINS

CITY           SKY/WX    TMP DP  RH WIND       PRES   REMARKS
ROSWELL        CLOUDY    73  65  75 S6        30.20F
ARTESIA        PTSUNNY   81  61  50 CALM      30.19F
CARLSBAD       MOSUNNY   90  58  33 CALM      30.14F
HOBBS          MOSUNNY   82  59  44 N8        30.22F


$$



USA.gov is the U.S. government's official web portal to all federal, state and local government web resources and services.